This demonstration page uses our WeatherBlox Daily Observations layout. Learn more.

Left ArrowRight Arrow

Hourly Observations for October 3, 2022

Temp ( °F °C ) Dew Point ( °F °C ) Humidity (%) Winds ( mph kmh ) Pressure ( in mb ) Visibility ( mi km ) Precip ( " mm )
12:15 am 00:15 Clear 64 17.7 39 3.8 40 40 S 12 19 30.12 1020 10 16 0.00 0.00
12:35 am 00:35 Clear 63 17.2 40 4.2 42 42 SSE 12 19 30.13 1020 10 16 0.00 0.00
12:55 am 00:55 Clear 62 16.5 40 4.5 45 45 SSE 12 19 30.12 1020 10 16 0.00 0.00
1:15 am 01:15 Clear 61 16 40 4.6 47 47 SSE 13 20 30.13 1020 10 16 0.00 0.00
1:35 am 01:35 Clear 60 15.5 40 4.7 49 49 SSE 12 19 30.13 1020 10 16 0.00 0.00
1:55 am 01:55 Clear 59 15 40 4.7 50 50 SSE 12 19 30.14 1021 10 16 0.00 0.00
2:15 am 02:15 Clear 58 14.7 40 4.5 50 50 SSE 12 19 30.13 1020 10 16 0.00 0.00
2:35 am 02:35 Clear 59 14.9 40 4.2 49 49 SSE 12 19 30.14 1021 10 16 0.00 0.00
2:55 am 02:55 Clear 58 14.7 39 4 49 49 SSE 12 19 30.14 1021 10 16 0.00 0.00
3:15 am 03:15 Clear 58 14.6 39 3.7 48 48 SSE 12 19 30.13 1020 10 16 0.00 0.00
3:35 am 03:35 Clear 57 14 39 3.7 50 50 SSE 12 19 30.14 1021 10 16 0.00 0.00
3:55 am 03:55 Clear 57 13.8 39 3.7 50 50 S 12 19 30.14 1021 10 16 0.00 0.00
4:15 am 04:15 Clear 57 14 38 3.5 49 49 SSE 12 19 30.14 1021 10 16 0.00 0.00
4:35 am 04:35 Clear 57 14 38 3.3 48 48 SSE 12 19 30.12 1020 10 16 0.00 0.00
4:55 am 04:55 Clear 56 13.5 38 3.5 51 51 SSE 9 15 30.13 1020 10 16 0.00 0.00
5:15 am 05:15 Clear 55 12.5 38 3.6 55 55 SE 8 13 30.13 1020 10 16 0.00 0.00
5:35 am 05:35 Clear 55 12.5 38 3.5 54 54 SE 8 13 30.14 1021 10 16 0.00 0.00
5:55 am 05:55 Clear 54 12 38 3.5 56 56 SE 9 15 30.13 1020 10 16 0.00 0.00
6:15 am 06:15 Clear 54 12.2 38 3.2 54 54 SE 9 15 30.13 1020 10 16 0.00 0.00
6:35 am 06:35 Clear 54 12 38 3.1 54 54 SE 9 15 30.13 1020 10 16 0.00 0.00
6:55 am 06:55 Clear 53 11.6 38 3.1 56 56 SE 7 11 30.14 1021 10 16 0.00 0.00
7:15 am 07:15 Clear 53 11.5 38 3.1 56 56 ESE 6 9 30.15 1021 10 16 0.00 0.00
7:35 am 07:35 Clear 51 10.7 38 3.2 60 60 SE 8 13 30.15 1021 10 16 0.00 0.00
7:55 am 07:55 Sunny 53 11.9 37 3 54 54 SE 6 9 30.14 1021 10 16 0.00 0.00
8:15 am 08:15 Sunny 54 12.3 38 3.1 53 53 SE 6 9 30.14 1021 10 16 0.00 0.00
8:35 am 08:35 Sunny 56 13.2 38 3.2 51 51 SE 7 11 30.13 1020 10 16 0.00 0.00
8:55 am 08:55 Sunny 57 14.1 38 3.3 48 48 SE 7 11 30.14 1020 10 16 0.00 0.00
9:15 am 09:15 Sunny 59 15.1 38 3.5 46 46 SE 8 13 30.13 1020 10 16 0.00 0.00
9:35 am 09:35 Sunny 62 16.4 39 3.9 43 43 SSE 8 13 30.11 1020 10 16 0.00 0.00
9:55 am 09:55 Sunny 67 19.3 39 3.9 36 36 S 10 17 30.08 1019 10 16 0.00 0.00
10:15 am 10:15 Sunny 66 18.8 39 4 37 37 S 12 19 30.09 1019 10 16 0.00 0.00
10:35 am 10:35 Sunny 69 20.5 38 3.6 33 33 S 15 24 30.08 1019 10 16 0.00 0.00
10:55 am 10:55 Sunny 68 20.2 38 3.6 33 33 S 12 19 30.08 1019 10 16 0.00 0.00
11:15 am 11:15 Sunny 69 20.7 38 3.5 32 32 S 10 17 30.08 1019 10 16 0.00 0.00
11:35 am 11:35 Sunny 71 21.9 39 3.9 31 31 SSE 16 26 30.05 1018 10 16 0.00 0.00
11:55 am 11:55 Sunny 71 21.9 39 3.8 31 31 S 12 19 30.05 1017 10 16 0.00 0.00
12:15 pm 12:15 Sunny 74 23.4 38 3.6 27 27 S 14 22 30.02 1017 10 16 0.00 0.00
12:35 pm 12:35 Sunny 74 23.1 39 4.1 29 29 SSE 14 22 30.02 1016 10 16 0.00 0.00
12:55 pm 12:55 Sunny 75 23.9 39 3.7 27 27 SSE 15 24 30.00 1016 10 16 0.00 0.00
1:15 pm 13:15 Sunny 75 24 38 3.4 26 26 S 18 30 29.99 1015 10 16 0.00 0.00
1:35 pm 13:35 Partly Cloudy 75 24.1 37 2.9 25 25 SSE 15 24 29.99 1015 10 16 0.00 0.00
1:55 pm 13:55 Mostly Cloudy 76 24.2 39 3.8 27 27 SSE 14 22 29.99 1015 10 16 0.00 0.00
2:15 pm 14:15 Partly Cloudy 76 24.5 40 4.7 28 28 SSE 13 20 29.97 1015 10 16 0.00 0.00
2:35 pm 14:35 Sunny 78 25.3 40 4.7 26 26 SSE 15 24 29.97 1015 10 16 0.00 0.00
2:55 pm 14:55 Sunny 78 25.5 40 4.2 25 25 SSE 15 24 29.95 1014 10 16 0.00 0.00
3:15 pm 15:15 Sunny 79 25.9 40 4.2 25 25 SSE 15 24 29.93 1014 10 16 0.00 0.00
3:35 pm 15:35 Sunny 80 26.9 40 4.5 24 24 SE 16 26 29.92 1013 10 16 0.00 0.00
3:55 pm 15:55 Sunny 83 28.1 40 4.7 22 22 S 21 33 29.90 1013 10 16 0.00 0.00
4:15 pm 16:15 Sunny 82 27.7 39 3.7 21 21 SSE 20 31 29.91 1013 10 16 0.00 0.00
4:35 pm 16:35 Partly Cloudy 81 27.4 39 3.9 22 22 SSE 15 24 29.90 1013 10 16 0.00 0.00
4:55 pm 16:55 Partly Cloudy 81 27 39 3.7 22 22 SSE 16 26 29.90 1013 10 16 0.00 0.00
5:15 pm 17:15 Mostly Cloudy 80 26.7 39 3.7 23 23 SSE 15 24 29.91 1013 10 16 0.00 0.00
5:35 pm 17:35 Cloudy 81 27.2 39 4 23 23 SSE 18 30 29.89 1012 10 16 0.00 0.00
5:55 pm 17:55 Mostly Cloudy 80 26.8 39 3.8 23 23 SSE 13 20 29.90 1012 10 16 0.00 0.00
6:15 pm 18:15 Mostly Cloudy 80 26.5 39 3.7 23 23 SE 16 26 29.90 1012 10 16 0.00 0.00
6:35 pm 18:35 Cloudy 79 26 39 3.7 24 24 SSE 16 26 29.90 1013 10 16 0.00 0.00
6:55 pm 18:55 Cloudy 78 25.5 39 3.7 24 24 SE 14 22 29.91 1013 10 16 0.00 0.00
7:15 pm 19:15 Cloudy 77 25.1 38 3.3 24 24 SSE 10 17 29.92 1013 10 16 0.00 0.00
7:35 pm 19:35 Cloudy 75 23.7 40 4.6 29 29 W 7 11 29.95 1014 10 16 0.00 0.00
7:55 pm 19:55 Mostly Cloudy 71 21.8 44 6.8 38 38 WNW 8 13 29.97 1015 10 16 0.00 0.00
8:15 pm 20:15 Partly Cloudy 69 20.5 46 7.6 43 43 N 12 19 29.99 1015 10 16 0.00 0.00
8:35 pm 20:35 Mostly Cloudy 67 19.6 46 8 47 47 N 7 11 30.00 1016 10 16 0.00 0.00
8:55 pm 20:55 Partly Cloudy 66 19 47 8.5 51 51 NNE 7 11 30.01 1016 10 16 0.00 0.00
9:15 pm 21:15 Mostly Cloudy 66 18.8 47 8.5 51 51 NNE 8 13 30.02 1017 10 16 0.00 0.00
9:35 pm 21:35 Cloudy 66 18.7 48 8.7 52 52 NNW 17 28 30.04 1017 10 16 0.00 0.00
9:55 pm 21:55 Cloudy 66 19 49 9.7 55 55 N 20 31 30.04 1017 10 16 0.00 0.00
10:15 pm 22:15 Cloudy 66 19 49 9.6 54 54 NNE 13 20 30.05 1018 10 16 0.00 0.00
10:35 pm 22:35 Cloudy with Light Rain 64 17.7 51 10.8 64 64 NNE 10 17 30.06 1018 10 16 0.00 0.00
10:55 pm 22:55 Cloudy with Light Rain 61 16.2 54 12 76 76 NNE 10 17 30.08 1018 10 16 0.00 0.00
11:15 pm 23:15 Cloudy with Light Rain 61 15.9 54 12 78 78 NE 10 17 30.06 1018 10 16 0.00 0.00
11:35 pm 23:35 Cloudy with Drizzle 60 15.7 54 12.2 80 80 N 7 11 30.08 1019 10 16 0.00 0.00
11:55 pm 23:55 Cloudy with Drizzle 60 15.8 54 12.1 79 79 ENE 9 15 30.07 1018 10 16 0.00 0.00

Powered by AerisWeather